Time,TemperatureF,DewpointF,PressureIn,WindDirection,WindDirectionDegrees,WindSpeedMPH,WindSpeedGustMPH,Humidity,HourlyPrecipIn,Conditions,Clouds,dailyrainin,SoftwareType,DateUTC
2013-06-22 11:00:00,56.0,-99.9,30.15,SSW,194,6.0,7.0,-999,-99.99,,,-99.99,,2013-06-22 15:00:00,
2013-06-22 11:53:00,56.0,-99.9,30.15,SSW,194,6.0,7.0,-999,-99.99,,,-99.99,,2013-06-22 15:53:00,
2013-06-22 12:00:00,56.0,-99.9,30.15,SSW,205,9.0,10.0,-999,-99.99,,,-99.99,,2013-06-22 16:00:00,
2013-06-22 12:43:00,56.0,-99.9,30.15,SSW,205,9.0,10.0,-999,-99.99,,,-99.99,,2013-06-22 16:43:00,
2013-06-22 12:52:00,56.0,-99.9,30.15,SSW,205,9.0,10.0,-999,-99.99,,,-99.99,,2013-06-22 16:52:00,
2013-06-22 13:00:00,56.0,-99.9,30.14,SW,221,9.0,10.0,-999,-99.99,,,-99.99,,2013-06-22 17:00:00,
2013-06-22 13:43:00,56.0,-99.9,30.14,SW,221,9.0,10.0,-999,-99.99,,,-99.99,,2013-06-22 17:43:00,
2013-06-22 13:52:00,56.0,-99.9,30.14,SW,221,9.0,10.0,-999,-99.99,,,-99.99,,2013-06-22 17:52:00,
2013-06-22 14:00:00,55.0,-99.9,30.14,SW,229,8.0,9.0,-999,-99.99,,,-99.99,,2013-06-22 18:00:00,
2013-06-22 14:52:00,55.0,-99.9,30.14,SW,229,8.0,9.0,-999,-99.99,,,-99.99,,2013-06-22 18:52:00,
2013-06-22 15:00:00,55.0,-99.9,30.14,SW,216,4.0,5.0,-999,-99.99,,,-99.99,,2013-06-22 19:00:00,
2013-06-22 15:53:00,55.0,-99.9,30.14,SW,216,4.0,5.0,-999,-99.99,,,-99.99,,2013-06-22 19:53:00,
2013-06-22 16:00:00,57.0,-99.9,30.12,SW,226,4.0,6.0,-999,-99.99,,,-99.99,,2013-06-22 20:00:00,
2013-06-22 16:43:00,57.0,-99.9,30.12,SW,226,4.0,6.0,-999,-99.99,,,-99.99,,2013-06-22 20:43:00,
2013-06-22 16:53:00,57.0,-99.9,30.12,SW,226,4.0,6.0,-999,-99.99,,,-99.99,,2013-06-22 20:53:00,
2013-06-22 17:00:00,56.0,-99.9,30.11,SSW,210,3.0,5.0,-999,-99.99,,,-99.99,,2013-06-22 21:00:00,
2013-06-22 17:43:00,56.0,-99.9,30.11,SSW,210,3.0,5.0,-999,-99.99,,,-99.99,,2013-06-22 21:43:00,
2013-06-22 17:53:00,56.0,-99.9,30.11,SSW,210,3.0,5.0,-999,-99.99,,,-99.99,,2013-06-22 21:53:00,
2013-06-22 18:00:00,56.0,-99.9,30.09,SSW,200,6.0,8.0,-999,-99.99,,,-99.99,,2013-06-22 22:00:00,
2013-06-22 18:43:00,56.0,-99.9,30.09,SSW,200,6.0,8.0,-999,-99.99,,,-99.99,,2013-06-22 22:43:00,
2013-06-22 18:52:00,56.0,-99.9,30.09,SSW,200,6.0,8.0,-999,-99.99,,,-99.99,,2013-06-22 22:52:00,
2013-06-22 19:00:00,55.0,-99.9,30.09,SW,229,3.0,4.0,-999,-99.99,,,-99.99,,2013-06-22 23:00:00,
2013-06-22 19:43:00,55.0,-99.9,30.09,SW,229,3.0,4.0,-999,-99.99,,,-99.99,,2013-06-22 23:43:00,
2013-06-22 19:53:00,55.0,-99.9,30.09,SW,229,3.0,4.0,-999,-99.99,,,-99.99,,2013-06-22 23:53:00,
2013-06-22 20:00:00,56.0,-99.9,30.08,South,176,9.0,10.0,-999,-99.99,,,-99.99,,2013-06-23 00:00:00,
2013-06-22 20:42:00,56.0,-99.9,30.08,South,176,9.0,10.0,-999,-99.99,,,-99.99,,2013-06-23 00:42:00,
2013-06-22 20:53:00,56.0,-99.9,30.08,South,176,9.0,10.0,-999,-99.99,,,-99.99,,2013-06-23 00:53:00,
2013-06-22 21:00:00,56.0,-99.9,30.08,SSW,205,10.0,11.0,-999,-99.99,,,-99.99,,2013-06-23 01:00:00,
2013-06-22 21:42:00,56.0,-99.9,30.08,SSW,205,10.0,11.0,-999,-99.99,,,-99.99,,2013-06-23 01:42:00,
2013-06-22 21:52:00,56.0,-99.9,30.08,SSW,205,10.0,11.0,-999,-99.99,,,-99.99,,2013-06-23 01:52:00,
2013-06-22 22:30:00,56.0,-99.9,30.09,SSW,202,9.0,11.0,-999,-99.99,,,-99.99,,2013-06-23 02:30:00,
2013-06-22 23:00:00,56.0,-99.9,30.09,SSW,200,10.0,11.0,-999,-99.99,,,-99.99,,2013-06-23 03:00:00,
2013-06-22 23:01:00,56.0,-99.9,30.09,SSW,202,9.0,11.0,-999,-99.99,,,-99.99,,2013-06-23 03:01:00,
2013-06-22 23:11:00,56.0,-99.9,30.09,SSW,202,9.0,11.0,-999,-99.99,,,-99.99,,2013-06-23 03:11:00,
2013-06-22 23:21:00,56.0,-99.9,30.09,SSW,202,9.0,11.0,-999,-99.99,,,-99.99,,2013-06-23 03:21:00,
2013-06-22 23:41:00,56.0,-99.9,30.09,SSW,200,10.0,11.0,-999,-99.99,,,-99.99,,2013-06-23 03:41:00,
2013-06-22 23:52:00,56.0,-99.9,30.09,SSW,200,10.0,11.0,-999,-99.99,,,-99.99,,2013-06-23 03:52:00,